Showing default

SUPERVIEW-1 03, 43099

Orbit data source: Space-Track

SUPERVIEW-1 03, 43099 is a payload satellite owned by Beijing HSJ (CN) in SSO that was launched on Tue, 09 Jan 2018 UTC via a CHANG ZHENG 2D launch vehicle from the Taiyaun Space Center, China (TSC). Payload-class satellites include a variety of spacecraft equipped with specific instruments for various scientific and technological missions. These include communications satellites like Starlink; space stations such as the ISS; scientific satellites like the Hubble; Earth observation satellites from companies like Planet Labs, Umbra, and HawkEye 360; GPS; miniature CubeSats for education and research; and military/defense satellites.

Loading next visibility...
Identifier
43099, 2018-002A
Orbit
SSO
Last TLE update
8 hours ago
Origin
Manufacturer
DFH
Mission
Operational Commercial Imaging
Bus & Motor
CAST3000B, Unknown motor
Mass
~600 kg wet, ~560 kg dry
Launch date (UTC)
2018-01-09 (7 years ago)
Launch vehicle
CHANG ZHENG 2D
Launch site
Taiyaun Space Center, China (TSC)
Object type
Payload
Rocket body
Debris
Shape & HBR
Box + 2 Pan, 4 m
Radar Cross Section
5.141 m², Large (>1 m²)

Expand to show TLE details & history

TLE from 8 hours ago
0 SUPERVIEW-1 03
1 43099U 18002A   25185.88464558  .00007636  00000-0  27622-3 0  9999
2 43099  97.3419 268.9872 0060614 342.7373  17.1803 15.26950588415164
Epoch: 2025-07-04T21:13Z
TLE epoch observation values (Epoch: 2025-07-04T21:13:53.378Z)
Latitude
-0.00006°
Longitude
27.38417°
Altitude
448.306 km
Speed
7.665 km/s
True Right ascension
17h 55m 56s
True Declination
0° 00' 00"
Sunlit
Object was in full shadow at epoch
Visualization orbit readout
Latitude
57.99574°
Longitude
-140.44052°
Altitude
526.429 km
Speed
7.588 km/s
Apparent Right ascension
06h 02m 24s
Apparent Declination
11° 45' 43"
Sunlit
Object is in daylight
Visualization observer readout
Local Sidereal Time
17:30:51
Azimuth
350.211° N
Elevation
-37.805°
Doppler factor
1
Orbital elements
Apogee altitude
523.469 km
Perigee altitude
440.307 km
Semi-major axis
6,860.025 km
Eccentricity
0.00606
Inclination
97.3419°
RAAN
268.9872°
Arg. of periapsis
342.7373°
True anomaly
Unknown
Mean anomaly
17.1803°
Eccentric anomaly
Unknown
Mean motion
3.81992 °/min
Orbital period
94.24 mins
BSTAR
0.00027622
Loading maneuver chart data...
Loading SW <> Apogee altitude chart data...
Loading historical data...
Loading historical data...
Loading historical data...
Loading historical data...
Loading historical data...
Loading historical data...
Loading historical data...

SUPERVIEW-1 03 Visibility forecast

Observer location: undefined°, undefined°

Span
Click to sort rows by Start time (UTC) header in descending order
Start Az.
Max El. time (UTC)
Max El. Az.
Max El.
End time (UTC)
End Az.
6 mins2025-07-05 18:14:25.918Z20.956° NNE2025-07-05 18:17:25.918Z110.314° ESE41.795°2025-07-05 18:20:25.918Z180.971° SSW
|